GW3994 Weather Reports


time (UTC)temp
F
wind
direction
speed
knots
gust
knots
rain 1hr
in
rain 24hr
in
rain mn
in
humidity
%
barometer
mb
20260506165346 0 308 3.5 3.5 0.00 0.00 0.00 1014.0
20260506164842 0 354 3.5 3.5 0.00 0.00 0.00 1014.0
20260506164339 0 285 3.5 3.5 0.00 0.00 0.00 1013.7
20260506163837 0 322 1.7 1.7 0.00 0.00 0.00 1013.7
20260506163331 0 312 1.7 1.7 0.00 0.00 0.00 1013.7
20260506162827 0 229 5.2 5.2 0.00 0.00 0.00 1013.7
20260506162325 0 336 6.1 7.0 0.00 0.00 0.00 1013.7
20260506161823 0 9 3.5 3.5 0.00 0.00 0.00 1013.7
20260506161319 0 316 2.6 2.6 0.00 0.00 0.00 1013.2
20260506160812 0 128 4.3 5.2 0.00 0.00 0.00 1013.2
20260506160308 0 336 2.6 2.6 0.00 0.00 0.00 1013.2
20260506155807 0 282 5.2 6.1 0.00 0.00 0.00 1012.9
20260506155306 0 354 3.5 3.5 0.00 0.00 0.00 1012.9
20260506153415 0 338 2.6 3.5 0.00 0.00 0.00 1012.9
20260506152913 0 325 5.2 5.2 0.00 0.00 0.00 1012.9
20260506152409 0 19 3.5 3.5 0.00 0.00 0.00 1012.9
20260506151908 0 330 3.5 3.5 0.00 0.00 0.00 1012.9
20260506151404 0 157 0.0 0.0 0.00 0.00 0.00 1012.5
20260506150902 0 101 3.5 4.3 0.00 0.00 0.00 1012.5
20260506150358 0 322 2.6 2.6 0.00 0.00 0.00 1012.5
20260506145855 0 33 2.6 2.6 0.00 0.00 0.00 1012.2
20260506145351 0 354 3.5 3.5 0.00 0.00 0.00 1012.2
20260506144849 0 12 6.1 7.8 0.00 0.00 0.00 1012.2
20260506144345 0 240 2.6 2.6 0.00 0.00 0.00 1012.2
20260506143844 0 258 4.3 4.3 0.00 0.00 0.00 1012.2
20260506143340 0 258 1.7 1.7 0.00 0.00 0.00 1012.2
20260506142839 0 258 1.7 1.7 0.00 0.00 0.00 1012.2
20260506142336 0 258 4.3 4.3 0.00 0.00 0.00 1012.2
20260506141834 0 258 4.3 4.3 0.00 0.00 0.00 1012.2
20260506141332 0 153 4.3 4.3 0.00 0.00 0.00 1012.5
20260506140830 0 0 1.7 1.7 0.00 0.00 0.00 1012.5
20260506140327 0 0 0.0 0.0 0.00 0.00 0.00 1012.5
20260506135824 0 0 1.7 1.7 0.00 0.00 0.00 1012.2
20260506135320 0 0 3.5 3.5 0.00 0.00 0.00 1012.2
20260506134817 0 0 1.7 1.7 0.00 0.00 0.00 1012.2
20260506134313 0 0 2.6 2.6 0.00 0.00 0.00 1012.2
20260506133810 0 0 1.7 1.7 0.00 0.00 0.00 1012.2
20260506133307 0 0 0.9 0.9 0.00 0.00 0.00 1012.2
20260506132804 0 0 0.0 0.0 0.00 0.00 0.00 1012.5
20260506132301 0 0 1.7 1.7 0.00 0.00 0.00 1012.5
20260506131759 0 0 0.0 0.0 0.00 0.00 0.00 1012.5
20260506131254 0 0 0.0 0.0 0.00 0.00 0.00 1011.9
20260506130751 0 0 1.7 1.7 0.00 0.00 0.00 1011.9
20260506130248 0 0 0.0 0.0 0.00 0.00 0.00 1011.9
20260506125746 0 0 0.0 0.0 0.00 0.00 0.00 1011.5
20260506125244 0 0 3.5 3.5 0.00 0.00 0.00 1011.5
20260506124742 0 0 1.7 1.7 0.00 0.00 0.00 1011.5
20260506124240 0 0 1.7 1.7 0.00 0.00 0.00 1011.2
20260506123737 0 0 0.0 0.0 0.00 0.00 0.00 1011.2
20260506123235 0 0 0.9 0.9 0.00 0.00 0.00 1011.2
20260506122732 0 0 0.0 0.0 0.00 0.00 0.00 1011.2
20260506122229 0 0.0 0.0 0.00 0.00 0.00 1009.5
20260506121728 0 0.0 0.0 0.00 0.00 0.00 1009.5
20260506121224 0 0.0 0.0 0.00 0.00 0.00 1009.5
20260506120722 0 0.0 0.0 0.00 0.00 0.00 1009.5
20260506120219 0 0.0 0.0 0.00 0.00 0.00 1009.5
20260506115717 0 0.0 0.0 0.00 0.00 0.00 1009.5
20260506115215 0 0.0 0.0 0.00 0.00 0.00 1009.5
20260506114712 0 0.0 0.0 0.00 0.00 0.00 1009.5
20260506114209 0 0.0 0.0 0.00 0.00 0.00 1009.5
20260506113708 0 0.0 0.0 0.00 0.00 0.00 1009.5
20260506113205 0 0.0 0.0 0.00 0.00 0.00 1009.5
20260506112701 0 0.0 0.0 0.00 0.00 0.00 1009.5
20260506112159 0 0.0 0.0 0.00 0.00 0.00 1009.5
20260506111656 0 0.0 0.0 0.00 0.00 0.00 1009.5
20260506111154 0 0.0 0.0 0.00 0.00 0.00 1009.5
20260506110651 0 0.0 0.0 0.00 0.00 0.00 1009.5
20260506110148 0 0.0 0.0 0.00 0.00 0.00 1009.5
20260506105644 0 0.0 0.0 0.00 0.00 0.00 1009.5
20260506105141 0 0.0 0.0 0.00 0.00 0.00 1009.5
20260506104640 0 0.0 0.0 0.00 0.00 0.00 1009.5
20260506104137 0 0.0 0.0 0.00 0.00 0.00 1009.5
20260506103634 0 0.0 0.0 0.00 0.00 0.00 1009.5
20260506103131 0 0.0 0.0 0.00 0.00 0.00 1009.5
20260506102629 0 0.0 0.0 0.00 0.00 0.00 1009.5
20260506102126 0 0.0 0.0 0.00 0.00 0.00 1009.5
20260506101623 0 0.0 0.0 0.00 0.00 0.00 1009.5
20260506101119 0 0.0 0.0 0.00 0.00 0.00 1009.5
20260506100618 0 0.0 0.0 0.00 0.00 0.00 1009.5
20260506100116 0 0.0 0.0 0.00 0.00 0.00 1009.5
20260506095615 0 0.0 0.0 0.00 0.00 0.00 1009.5
20260506095111 0 0.0 0.0 0.00 0.00 0.00 1009.5
20260506094608 0 0.0 0.0 0.00 0.00 0.00 1009.5
20260506094106 0 0.0 0.0 0.00 0.00 0.00 1009.5
20260506093604 0 0.0 0.0 0.00 0.00 0.00 1009.5
20260506093101 0 0.0 0.0 0.00 0.00 0.00 1009.5
20260506092559 0 0.0 0.0 0.00 0.00 0.00 1009.5
20260506092055 0 0.0 0.0 0.00 0.00 0.00 1009.5
20260506091554 0 0.0 0.0 0.00 0.00 0.00 1009.5
20260506091051 0 0.0 0.0 0.00 0.00 0.00 1009.5
20260506090549 0 0.0 0.0 0.00 0.00 0.00 1009.5
20260506090045 0 0.0 0.0 0.00 0.00 0.00 1009.5
20260506085542 0 0.0 0.0 0.00 0.00 0.00 1009.5
20260506085038 0 0.0 0.0 0.00 0.00 0.00 1009.5
20260506084535 0 0.0 0.0 0.00 0.00 0.00 1009.5
20260506084031 0 0.0 0.0 0.00 0.00 0.00 1009.5
20260506083528 0 0.0 0.0 0.00 0.00 0.00 1009.5
20260506083026 0 0.0 0.0 0.00 0.00 0.00 1009.5
20260506082523 0 0.0 0.0 0.00 0.00 0.00 1009.5
20260506082018 0 0.0 0.0 0.00 0.00 0.00 1009.5
20260506081517 0 0.0 0.0 0.00 0.00 0.00 1009.5
20260506081014 0 0.0 0.0 0.00 0.00 0.00 1009.5
20260506080511 0 0.0 0.0 0.00 0.00 0.00 1009.5
20260506073455 0 0.0 0.0 0.00 0.00 0.00 1009.5
20260506072952 0 0.0 0.0 0.00 0.00 0.00 1009.5
20260506072449 0 0.0 0.0 0.00 0.00 0.00 1009.5
20260506071947 0 0.0 0.0 0.00 0.00 0.00 1009.5
20260506071444 0 0.0 0.0 0.00 0.00 0.00 1009.5
20260506070941 0 0.0 0.0 0.00 0.00 0.00 1009.5
20260506070438 0 0.0 0.0 0.00 0.00 0.00 1009.5
20260506062416 0 0.0 0.0 0.00 0.00 0.00 1009.5
20260506061911 0 0.0 0.0 0.00 0.00 0.00 1009.5
20260506061408 0 0.0 0.0 0.00 0.00 0.00 1009.5
20260506060906 0 0.0 0.0 0.00 0.00 0.00 1009.5
20260506060404 0 0.0 0.0 0.00 0.00 0.00 1009.5
20260506051336 0 0.0 0.0 0.00 0.00 0.00 1009.5
20260506050833 0 0.0 0.0 0.00 0.00 0.00 1009.5
20260506050330 0 0.0 0.0 0.00 0.00 0.00 1009.5
20260506044821 0 0.0 0.0 0.00 0.00 0.00 1009.5
20260506044319 0 0.0 0.0 0.00 0.00 0.00 1009.5
20260506043816 0 0.0 0.0 0.00 0.00 0.00 1009.5
20260506043313 0 0.0 0.0 0.00 0.00 0.00 1009.5
20260506042811 0 0.0 0.0 0.00 0.00 0.00 1009.5
20260506042310 0 0.0 0.0 0.00 0.00 0.00 1009.5
20260506041808 0 0.0 0.0 0.00 0.00 0.00 1009.5
20260506041305 0 0.0 0.0 0.00 0.00 0.00 1009.5
20260506040802 0 0.0 0.0 0.00 0.00 0.00 1009.5
20260506040259 0 0.0 0.0 0.00 0.00 0.00 1009.5
20260506035756 0 0.0 0.0 0.00 0.00 0.00 1009.5
20260506035253 0 0.0 0.0 0.00 0.00 0.00 1009.5
20260506034750 0 0.0 0.0 0.00 0.00 0.00 1009.5
20260506034247 0 0.0 0.0 0.00 0.00 0.00 1009.5
20260506033744 0 0.0 0.0 0.00 0.00 0.00 1009.5
20260506033241 0 0.0 0.0 0.00 0.00 0.00 1009.5
20260506032738 0 0.0 0.0 0.00 0.00 0.00 1009.5
20260506032235 0 0.0 0.0 0.00 0.00 0.00 1009.5
20260506031731 0 0.0 0.0 0.00 0.00 0.00 1009.5
20260506031229 0 0.0 0.0 0.00 0.00 0.00 1009.5
20260506030727 0 0.0 0.0 0.00 0.00 0.00 1009.5
20260506030224 0 0.0 0.0 0.00 0.00 0.00 1009.5
20260506025721 0 0.0 0.0 0.00 0.00 0.00 1009.5
20260506025217 0 0.0 0.0 0.00 0.00 0.00 1009.5
20260506024714 0 0.0 0.0 0.00 0.00 0.00 1009.5
20260506024211 0 0.0 0.0 0.00 0.00 0.00 1009.5
20260506023707 0 0.0 0.0 0.00 0.00 0.00 1009.5
20260506023205 0 0.0 0.0 0.00 0.00 0.00 1009.5
20260506022701 0 0.0 0.0 0.00 0.00 0.00 1009.5
20260506022159 0 0.0 0.0 0.00 0.00 0.00 1009.5
20260506021657 0 0.0 0.0 0.00 0.00 0.00 1009.5
20260506021154 0 0.0 0.0 0.00 0.00 0.00 1009.5
20260506020651 0 0.0 0.0 0.00 0.00 0.00 1009.5
20260506020148 0 0.0 0.0 0.00 0.00 0.00 1009.5
20260506015646 0 0.0 0.0 0.00 0.00 0.00 1009.5
20260506015143 0 0.0 0.0 0.00 0.00 0.00 1009.5
20260506014641 0 0.0 0.0 0.00 0.00 0.00 1009.5
20260506014136 0 0.0 0.0 0.00 0.00 0.00 1009.5
20260506013634 0 0.0 0.0 0.00 0.00 0.00 1009.5
20260506013131 0 0.0 0.0 0.00 0.00 0.00 1009.5
20260506012627 0 0.0 0.0 0.00 0.00 0.00 1009.5
20260506012123 0 0.0 0.0 0.00 0.00 0.00 1009.5
20260506011621 0 0.0 0.0 0.00 0.00 0.00 1009.5
20260506011117 0 0.0 0.0 0.00 0.00 0.00 1009.5
20260506010611 0 0.0 0.0 0.00 0.00 0.00 1009.5
20260506010108 0 0.0 0.0 0.00 0.00 0.00 1009.5
20260506005605 0 0.0 0.0 0.00 0.00 0.00 1009.5
20260506005101 0 0.0 0.0 0.00 0.00 0.00 1009.5
20260506004558 0 0.0 0.0 0.00 0.00 0.00 1009.5
20260506004055 0 0.0 0.0 0.00 0.00 0.00 1009.5
20260506003551 0 0.0 0.0 0.00 0.00 0.00 1009.5
20260506003048 0 0.0 0.0 0.00 0.00 0.00 1009.5
20260506002544 0 0.0 0.0 0.00 0.00 0.00 1009.5
20260506002040 0 0.0 0.0 0.00 0.00 0.00 1009.5
20260506001536 0 0.0 0.0 0.00 0.00 0.00 1009.5
20260506001033 0 0.0 0.0 0.00 0.00 0.00 1009.5
20260506000531 0 0.0 0.0 0.00 0.00 0.00 1009.5
20260506000028 0 0.0 0.0 0.00 0.00 0.00 1009.5
20260505235526 0 0.0 0.0 0.00 0.00 0.00 1009.5
20260505235022 0 0.0 0.0 0.00 0.00 0.00 1009.5
20260505234520 0 0.0 0.0 0.00 0.00 0.00 1009.5
20260505234016 0 0.0 0.0 0.00 0.00 0.00 1009.5
20260505233514 0 0.0 0.0 0.00 0.00 0.00 1009.5
20260505233011 0 0.0 0.0 0.00 0.00 0.00 1009.5
20260505232509 0 0.0 0.0 0.00 0.00 0.00 1009.5
20260505232006 0 0.0 0.0 0.00 0.00 0.00 1009.5
20260505231503 0 0.0 0.0 0.00 0.00 0.00 1009.5
20260505231002 0 0.0 0.0 0.00 0.00 0.00 1009.5
20260505230459 0 0.0 0.0 0.00 0.00 0.00 1009.5
20260505225955 0 0.0 0.0 0.00 0.00 0.00 1009.5
20260505225452 0 0.0 0.0 0.00 0.00 0.00 1009.5
20260505224948 0 0.0 0.0 0.00 0.00 0.00 1009.5
20260505224445 0 0.0 0.0 0.00 0.00 0.00 1009.5
20260505223942 0 0.0 0.0 0.00 0.00 0.00 1009.5
20260505223439 0 0.0 0.0 0.00 0.00 0.00 1009.5
20260505222935 0 0.0 0.0 0.00 0.00 0.00 1009.5
20260505222432 0 0.0 0.0 0.00 0.00 0.00 1009.5
20260505221928 0 0.0 0.0 0.00 0.00 0.00 1009.5
20260505221425 0 0.0 0.0 0.00 0.00 0.00 1009.5
20260505220922 0 0.0 0.0 0.00 0.00 0.00 1009.5
20260505220419 0 0.0 0.0 0.00 0.00 0.00 1009.5
20260505215917 0 0.0 0.0 0.00 0.00 0.00 1009.5
20260505215415 0 0.0 0.0 0.00 0.00 0.00 1009.5
20260505214912 0 0.0 0.0 0.00 0.00 0.00 1009.5
20260505214410 0 0.0 0.0 0.00 0.00 0.00 1009.5
20260505213907 0 0.0 0.0 0.00 0.00 0.00 1009.5
20260505213405 0 0.0 0.0 0.00 0.00 0.00 1009.5
20260505212900 0 0.0 0.0 0.00 0.00 0.00 1009.5
20260505212358 0 0.0 0.0 0.00 0.00 0.00 1009.5
20260505211854 0 0.0 0.0 0.00 0.00 0.00 1009.5
20260505211351 0 0.0 0.0 0.00 0.00 0.00 1009.5
20260505210848 0 0.0 0.0 0.00 0.00 0.00 1009.5
20260505210345 0 0.0 0.0 0.00 0.00 0.00 1009.5
20260505205841 0 0.0 0.0 0.00 0.00 0.00 1009.5
20260505205340 0 0.0 0.0 0.00 0.00 0.00 1009.5
20260505204836 0 0.0 0.0 0.00 0.00 0.00 1009.5
20260505204334 0 0.0 0.0 0.00 0.00 0.00 1009.5
20260505203831 0 0.0 0.0 0.00 0.00 0.00 1009.5
20260505203328 0 0.0 0.0 0.00 0.00 0.00 1009.5
20260505202824 0 0.0 0.0 0.00 0.00 0.00 1009.5
20260505202320 0 0.0 0.0 0.00 0.00 0.00 1009.5
20260505201817 0 0.0 0.0 0.00 0.00 0.00 1009.5
20260505201315 0 0.0 0.0 0.00 0.00 0.00 1009.5
20260505200813 0 0.0 0.0 0.00 0.00 0.00 1009.5
20260505200309 0 89 0.0 0.0 0.00 0.26 0.26 1009.5
20260505195804 0 89 0.0 0.0 0.11 0.26 0.26 1009.5
20260505195305 0 89 0.0 0.0 0.11 0.26 0.26 1009.5
20260505194759 0 89 1.7 1.7 0.10 0.25 0.25 1009.5
20260505194256 0 89 0.0 0.0 0.09 0.24 0.24 1009.2
20260505193756 0 89 2.6 2.6 0.09 0.24 0.24 1009.2
20260505193254 0 89 1.7 1.7 0.08 0.23 0.23 1009.2
20260505192752 0 89 1.7 1.7 0.07 0.22 0.22 1009.5
20260505192250 0 89 1.7 1.7 0.06 0.21 0.21 1009.5
20260505191748 0 89 1.7 1.7 0.05 0.20 0.20 1009.5
20260505191246 0 89 1.7 1.7 0.05 0.20 0.20 1009.5
20260505190742 0 89 1.7 1.7 0.04 0.19 0.19 1009.5
20260505190237 0 89 0.9 0.9 0.01 0.16 0.16 1009.5
20260505185733 0 89 1.7 1.7 0.12 0.12 0.12 1009.5
20260505185230 0 89 0.0 0.0 0.08 0.08 0.08 1009.5
20260505184726 0 89 0.9 0.9 0.06 0.06 0.06 1009.5
20260505184224 0 89 2.6 2.6 0.05 0.05 0.05 1009.5
20260505183720 0 234 3.5 3.5 0.04 0.04 0.04 1009.5
20260505183218 0 192 2.6 2.6 0.04 0.04 0.04 1009.5
20260505182714 0 258 3.5 3.5 0.03 0.03 0.03 1009.5
20260505182211 0 229 1.7 1.7 0.03 0.03 0.03 1009.5
20260505181707 0 264 3.5 3.5 0.02 0.02 0.02 1009.5
20260505181205 0 216 6.1 7.8 0.01 0.01 0.01 1009.5
20260505180701 0 234 1.7 1.7 0.01 0.01 0.01 1009.5
20260505180158 0 192 4.3 4.3 0.00 0.00 0.00 1009.5
20260505175654 0 216 4.3 5.2 0.00 0.00 0.00 1009.5
20260505175151 0 342 2.6 3.5 0.00 0.00 0.00 1009.5
20260505174647 0 117 4.3 4.3 0.00 0.00 0.00 1009.5
20260505174143 0 210 2.6 2.6 0.00 0.00 0.00 1009.2
20260505173640 0 129 2.6 2.6 0.00 0.00 0.00 1009.2
20260505173137 0 238 4.3 4.3 0.00 0.00 0.00 1009.2
20260505172635 0 188 5.2 6.1 0.00 0.00 0.00 1009.5
20260505172131 0 248 1.7 1.7 0.00 0.00 0.00 1009.5
20260505171626 0 203 4.3 4.3 0.00 0.00 0.00 1009.5
20260505171123 0 259 5.2 5.2 0.00 0.00 0.00 1009.2
20260505170615 0 270 3.5 3.5 0.00 0.00 0.00 1009.2
20260505170111 0 300 1.7 1.7 0.00 0.00 0.00 1009.2
20260505165606 0 199 5.2 5.2 0.00 0.00 0.00 1009.2